Aérodrome :
LOGIN :

S'inscrire | Disclaimer

   EN    FR    IT 

 










Légende :    VFR   VFR Marginal   IFR   IFR Intensif   IFR Très Intensif
Visi : 
Plafond : 
>= 8 km
>= 3000ft
5 à 8 km
1000 à 3000 ft
1500m à 5 km
500 à 1000 ft
800 à 1500m
200 à 500 ft
< 800m
< 200 ft
Symboles :   Orages  Brouillard  Fortes neiges  Fortes précipitations  Vent > 20 kt
SIGMETs :   Divers  Orages  Givrage  Turbulence  Onde Orograph.  Cendres Volcan.







- Altitude de l'aérodrome : 56 ft
- Code IATA : ODE


EKOD - Odense

DERNIER METAR :
  • 151050Z 24006KT 8000 FEW013 SCT031 BKN044 03/02 Q0993 R06/710095

METARs EXPIRÉS :
  • 150950Z 24006KT 9999 FEW011 SCT031 BKN035 02/01 Q0992 R06/790191
  • 150920Z 25005KT 9999 FEW011 SCT026 BKN035 01/01 Q0992 R06/790191
  • 150850Z 25005KT 9999 SCT018 BKN190 01/00 Q0992 R06/790191

TAF AMD TAF EKOD
Valide du 15 à 09h jusqu'au 15 à 17h UTC


151020Z 1509/1517 25008KT 9999 BKN020
TEMPO 1510/1517 3000 -SHRA BR BKN008 SCT020CB
Pas de NOTAMs connus pour ce terrain.



MET'MAP, la Météo Aéronautique d'un coup d'oeil ! - Copyright ORBIFLY Décembre 2007 - Disclaimer

ORBIFLY MET'MAP TEAM :

Programmation & Développement : Alexandra Zaïnal
Conception & Développement : Baudouin d'Aumeries
Co-Programmation & Développement : Marc-Olivier Méhu
Soutien technique & logistique : Manuel Goepfert

Contact : metmap@orbifly.com




SOURCES & CREDITS :

   NOAA